Content
SEND FEEDBACK

Daily
Averages
Monthly
Summary
United States of America

ST. LOUIS, MISSOURI


Home > North America > United States > Missouri
Elevation: 163 meters     Latitude: 38 45N     Longitude: 090 22W

WEATHER
 
SELECT A DAY
Number of Records: 196,477;   Date Range: 1/1/95 - 8/28/14
 
SHARE

PRINT THIS DATA

[ ← Previous Day ]
WEATHER ALMANAC - 1 JANUARY, 2013
[ Next Day → ]
[ °F ]   °C
Weather ElementAverageHighLow
Temperature-4.6 °C-1 °C (12:15 am)-11.1 °C (11:54 pm)
Dewpoint-8 °C-3 °C (12:15 am)-12.8 °C (11:54 pm)
Humidity77.7 %89 % (12:54 am)63 % (2:54 pm)
Barometer1023.4 hPa1026.4 hPa (9:54 pm)1020 hPa (12:15 am)
Wind Speed10.1 km/h16.7 km/h (12:15 am)
Weather ElementAverage
Visibility13.4 km
Wind DirectionWSW (241.7 °)

Weather ElementTotal
Precipitation---
Heating Degree Days24.4 (Base 18.3)
Averaged from 35 records on 1 January, 2013
WEATHER CONDITIONS BREAKOUT
WIND DIRECTION BREAKOUT
WEATHER BY HOUR - 1 JANUARY, 2013
[ °F ]   °C
Local TimeTemperatureDewpointHumidityBarometerVisibilityWind DirectionWind SpeedGust SpeedPrecipitationEventsConditions
12:15 AM-1 °C-3 °C86 %1020 hPa4.8 kmNorth (350°)16.7 km/h0 mmSnowLight Snow
12:54 AM-1.7 °C-3.3 °C89 %1021 hPa6.4 kmNorth (360°)11.1 km/h0 mmSnowLight Snow
1:27 AM-2 °C-4 °C86 %1020.3 hPa4 kmNorth (360°)9.3 km/h0 mmSnowLight Snow
1:34 AM-2 °C-4 °C86 %1020.3 hPa8 kmNNE (20°)14.8 km/h0 mmOvercast
1:42 AM-2 °C-5 °C80 %1020.3 hPa14.5 kmNNE (20°)14.8 km/h0 mmOvercast
1:54 AM-2.2 °C-5 °C81 %1021.7 hPa12.9 kmNorth (10°)13 km/h0 mmOvercast
2:07 AM-3 °C-5 °C86 %1021 hPa11.3 kmNNW (340°)13 km/hOvercast
2:54 AM-2.8 °C-5.6 °C81 %1022 hPa11.3 kmNorth (350°)11.1 km/hOvercast
3:38 AM-3 °C-6 °C80 %1021 hPa11.3 kmNorth (360°)11.1 km/hOvercast
3:45 AM-3 °C-6 °C80 %1021 hPa11.3 kmNorth (360°)11.1 km/hOvercast
3:54 AM-3.3 °C-6.1 °C81 %1022 hPa11.3 kmNorth (10°)11.1 km/hOvercast
4:17 AM-4 °C-6 °C86 %1021.3 hPa12.9 kmNorth (350°)13 km/hOvercast
4:33 AM-4 °C-7 °C80 %1021.3 hPa12.9 kmNorth (360°)9.3 km/hOvercast
4:54 AM-3.9 °C-6.7 °C81 %1022.4 hPa12.9 kmNorth (10°)11.1 km/hOvercast
5:54 AM-4.4 °C-7.8 °C77 %1022 hPa16.1 kmNorth (10°)11.1 km/hOvercast
6:54 AM-5 °C-8.3 °C78 %1023.7 hPa16.1 kmNorth (10°)9.3 km/hScattered Clouds
7:24 AM-6 °C-9 °C80 %1023 hPa16.1 kmNorth (10°)16.7 km/hOvercast
7:54 AM-5.6 °C-8.9 °C78 %1025.1 hPa16.1 kmNorth (360°)7.4 km/hOvercast
8:54 AM-5 °C-8.9 °C74 %1025.1 hPa16.1 kmNorth (350°)11.1 km/hOvercast
9:54 AM-5.6 °C-8.9 °C78 %1025.1 hPa16.1 kmNorth (350°)14.8 km/hOvercast
10:54 AM-5 °C-8.9 °C74 %1025.1 hPa12.9 kmNorth (350°)13 km/hMostly Cloudy
11:08 AM-4 °C-9 °C69 %1024 hPa14.5 kmNorth (350°)11.1 km/hMostly Cloudy
11:54 AM-3.9 °C-8.3 °C72 %1025.1 hPa14.5 kmNorth (350°)11.1 km/hMostly Cloudy
12:54 PM-3.9 °C-8.9 °C69 %1024 hPa16.1 kmNNW (340°)9.3 km/hOvercast
1:54 PM-3.9 °C-8.9 °C69 %1024 hPa16.1 kmNNW (330°)13 km/hOvercast
2:54 PM-3.3 °C-9.4 °C63 %1024.4 hPa16.1 kmNNW (340°)11.1 km/hOvercast
3:54 PM-3.3 °C-9.4 °C63 %1024.7 hPa16.1 kmNW (320°)5.6 km/hMostly Cloudy
4:54 PM-3.9 °C-10 °C63 %1025.1 hPa16.1 kmNorth (350°)7.4 km/hScattered Clouds
5:54 PM-5 °C-10.6 °C65 %1025.4 hPa16.1 kmNNW (340°)5.6 km/hMostly Cloudy
6:54 PM-7.8 °C-11.7 °C74 %1025.7 hPa16.1 kmWest (280°)5.6 km/hPartly Cloudy
7:54 PM-7.2 °C-11.1 °C74 %1025.7 hPa16.1 kmCalmPartly Cloudy
8:54 PM-9.4 °C-12.2 °C80 %1025.7 hPa14.5 kmWest (270°)5.6 km/hClear
9:54 PM-9.4 °C-11.7 °C84 %1026.4 hPa14.5 kmCalmClear
10:54 PM-9.4 °C-11.7 °C84 %1026.4 hPa14.5 kmWSW (250°)5.6 km/hClear
11:54 PM-11.1 °C-12.8 °C88 %1026.1 hPa11.3 kmWSW (240°)7.4 km/hClear
Hourly data recorded from KSUS, located 0 kilometers away from St. Louis, Missouri







STORIES FROM OUR PARTNERS